Zurück zum Katalog

STARLINK-3286

AktivKommunikationVLEO
NORAD 50171·PAYLOAD·🇺🇸 United States

Gestartet Dec 18, 2021 von Vandenberg Space Force Base

Loading…

Nächste Überflüge (nächste 24 Stunden)

TLE

AktuellSource: CelesTrak SupGP

Epoche: Sep 14, 2026, 21:18 UTC

1 50171C 21125R   26257.88798611 -.00009015  00000+0 -28997-3 0  2576
2 50171  53.1575 105.0103 0001388  85.6696 277.4318 15.31699765    17

Verfolge STARLINK-3286 in Echtzeit mit AllMySat

Download on the App Store